This demonstration page uses our WeatherBlox Daily Observations layout. Learn more.

Left ArrowRight Arrow

39.08367, -84.50855

Hourly Observations for January 26, 2018

Temp ( °F °C ) Dew Point ( °F °C ) Humidity (%) Winds ( mph kmh ) Pressure ( in mb ) Visibility ( mi km ) Precip ( " mm )
12:53 am 00:53 Clear 27 -2.8 25 -3.9 92 92 Calm 30.44 1031 10 16.0934 0 0
1:53 am 01:53 Clear 28 -2.2 26 -3.3 92 92 Calm 30.43 1031 10 16.0934 0 0
2:53 am 02:53 Clear 26 -3.3 24 -4.4 92 92 Calm 30.45 1031 10 16.0934 0 0
3:53 am 03:53 Clear 27 -2.8 26 -3.3 96 96 Calm 30.45 1031 10 16.0934 0 0
4:53 am 04:53 Clear 27 -2.8 25 -3.9 92 92 Calm 30.46 1032 10 16.0934 0 0
5:53 am 05:53 Clear 26 -3.3 23 -5 88 88 Calm 30.48 1032 10 16.0934 0 0
6:53 am 06:53 Clear 25 -3.9 23 -5 92 92 Calm 30.49 1033 10 16.0934 0 0
7:53 am 07:53 Sunny 26 -3.3 24 -4.4 92 92 Calm 30.5 1033 10 16.0934 0 0
8:53 am 08:53 Sunny 28 -2.2 28 -2.2 100 100 Calm 30.52 1033 10 16.0934 0 0
9:53 am 09:53 Sunny 38 3.3 31 -0.6 76 76 SW 5 7 30.51 1033 10 16.0934 0 0
10:53 am 10:53 Sunny 45 7.2 30 -1.1 56 56 SSW 9 15 30.51 1033 10 16.0934 0 0
11:53 am 11:53 Sunny 51 10.6 29 -1.7 43 43 S 9 15 30.48 1032 10 16.0934 0 0
12:53 pm 12:53 Sunny 57 13.9 27 -2.8 32 32 SSW 18 30 30.42 1030 10 16.0934 0 0
1:53 pm 13:53 Sunny 58 14.4 26 -3.3 29 29 S 16 26 30.39 1029 10 16.0934 0 0
2:53 pm 14:53 Sunny 59 15 23 -5 25 25 SW 17 28 30.37 1028 10 16.0934 0 0
3:53 pm 15:53 Sunny 57 13.9 22 -5.6 26 26 SSW 15 24 30.36 1028 10 16.0934 0 0
4:53 pm 16:53 Sunny 56 13.3 24 -4.4 29 29 S 9 15 30.34 1028 10 16.0934 0 0
5:53 pm 17:53 Clear 51 10.6 23 -5 33 33 S 10 17 30.35 1028 10 16.0934 0 0
6:53 pm 18:53 Clear 50 10 22 -5.6 33 33 S 8 13 30.35 1028 10 16.0934 0 0
7:53 pm 19:53 Clear 44 6.7 22 -5.6 41 41 SSW 6 9 30.35 1028 10 16.0934 0 0
8:53 pm 20:53 Clear 43 6.1 25 -3.9 49 49 SSW 5 7 30.34 1028 10 16.0934 0 0
9:53 pm 21:53 Clear 47 8.3 25 -3.9 42 42 S 8 13 30.33 1027 10 16.0934 0 0
10:53 pm 22:53 Clear 46 7.8 24 -4.4 42 42 SSW 13 20 30.33 1027 10 16.0934 0 0
11:53 pm 23:53 Clear 43 6.1 23 -5 45 45 S 9 15 30.32 1027 10 16.0934 0 0

Powered by AerisWeather